TimeCDT,TemperatureF,Dew PointF,Humidity,Sea Level PressureIn,VisibilityMPH,Wind Direction,Wind SpeedMPH,Gust SpeedMPH,PrecipitationIn,Events,Conditions,WindDirDegrees,DateUTC
12:52 AM,21.9,14.0,72,30.19,10.0,NNW,18.4,28.8,N/A,,Clear,340,2013-04-01 05:52:00
1:52 AM,21.9,14.0,72,30.21,10.0,NNW,20.7,27.6,N/A,,Clear,340,2013-04-01 06:52:00
2:26 AM,21.2,14.0,74,30.16,10.0,NNW,16.1,-,N/A,,Mostly Cloudy,340,2013-04-01 07:26:00
2:52 AM,21.0,12.9,71,30.22,10.0,North,18.4,24.2,N/A,,Mostly Cloudy,350,2013-04-01 07:52:00
3:01 AM,21.2,12.2,68,30.17,10.0,NNW,18.4,25.3,N/A,,Scattered Clouds,330,2013-04-01 08:01:00
3:52 AM,21.0,12.0,68,30.22,10.0,NNW,19.6,25.3,N/A,,Partly Cloudy,340,2013-04-01 08:52:00
4:07 AM,21.2,12.2,68,30.18,10.0,NNW,16.1,-,N/A,,Mostly Cloudy,340,2013-04-01 09:07:00
4:52 AM,21.0,12.9,71,30.24,10.0,North,18.4,-,N/A,,Overcast,350,2013-04-01 09:52:00
5:52 AM,19.9,12.0,71,30.26,10.0,NNW,18.4,-,N/A,,Scattered Clouds,340,2013-04-01 10:52:00
6:52 AM,19.0,10.0,68,30.29,10.0,NNW,18.4,-,N/A,,Clear,340,2013-04-01 11:52:00
7:52 AM,19.0,10.9,71,30.31,10.0,NNW,17.3,-,N/A,,Clear,340,2013-04-01 12:52:00
8:52 AM,21.9,10.9,63,30.32,10.0,NNW,19.6,-,N/A,,Clear,340,2013-04-01 13:52:00
9:52 AM,24.1,10.0,55,30.32,10.0,North,17.3,25.3,N/A,,Clear,350,2013-04-01 14:52:00
10:52 AM,27.0,10.9,51,30.33,10.0,NNW,18.4,25.3,N/A,,Clear,340,2013-04-01 15:52:00
11:52 AM,28.0,14.0,56,30.35,10.0,NNW,12.7,-,N/A,,Clear,330,2013-04-01 16:52:00
12:52 PM,30.0,14.0,51,30.34,10.0,North,16.1,-,N/A,,Partly Cloudy,350,2013-04-01 17:52:00
1:52 PM,32.0,16.0,52,30.33,10.0,NW,16.1,23.0,N/A,,Scattered Clouds,310,2013-04-01 18:52:00
2:52 PM,34.0,16.0,48,30.32,10.0,NNW,11.5,-,N/A,,Clear,340,2013-04-01 19:52:00
3:52 PM,34.0,15.1,46,30.31,10.0,NNW,11.5,19.6,N/A,,Clear,340,2013-04-01 20:52:00
4:52 PM,35.1,14.0,42,30.30,10.0,North,12.7,-,N/A,,Clear,350,2013-04-01 21:52:00
5:52 PM,34.0,12.9,42,30.30,10.0,NNW,11.5,-,N/A,,Clear,330,2013-04-01 22:52:00
6:52 PM,33.1,14.0,46,30.30,10.0,North,9.2,-,N/A,,Clear,350,2013-04-01 23:52:00
7:52 PM,28.9,16.0,58,30.30,10.0,North,6.9,-,N/A,,Clear,350,2013-04-02 00:52:00
8:52 PM,26.1,18.0,71,30.31,10.0,North,5.8,-,N/A,,Clear,350,2013-04-02 01:52:00
9:52 PM,25.0,19.0,78,30.32,10.0,North,6.9,-,N/A,,Clear,350,2013-04-02 02:52:00
10:52 PM,26.1,19.0,75,30.33,10.0,North,4.6,-,N/A,,Clear,350,2013-04-02 03:52:00
11:52 PM,25.0,19.9,81,30.32,10.0,NNW,4.6,-,N/A,,Clear,330,2013-04-02 04:52:00